Погода в Накале

Мозамбик     14°36′42″S   40°41′20″E
темп.,
°C
ветер,
м/с
пор.,
м/с
влажн.,
%
обл.,
%
осадки,
мм/ч
давл.,
гПа
погр.,
м
16 мая, вс
вс1623:00+23ю248896 0.0 101598
02:00+22ююз339361 0.0 101487
05:00+21ююз349582 0.0 101493
08:00+26ю247646 0.0 1016424
11:00+29вюв34565 0.0 10151182
14:00+28вюв44595 0.0 1013994
17:00+25юв34786 0.0 1014189
20:00+24юв24821 0.0 1015135
17 мая, пн
пн1723:00+24ююв22861 0.0 101571
02:00+23ююз22911 0.1 101462
05:00+22ююз22943 0.1 101566
08:00+26ююв23730 0.1 1016470
11:00+29вюв335717 0.1 10161074
14:00+28в436199 0.1 1014874
17:00+25вюв347557 0.0 1015190
20:00+24вюв237915 0.0 1016115
18 мая, вт
вт1823:00+23ю34859 0.0 101697
02:00+22ююз359194 0.0 1015124
05:00+21ююз3695100 0.0 1016145
08:00+26ю587588 0.0 1017675
11:00+29ююв565517 0.0 10171187
14:00+29ююв685743 0.0 10151124
17:00+25ю610695 0.0 1016690
20:00+23ююз510702 0.0 1018501
19 мая, ср
ср1923:00+20ююз411791 0.0 1017306
02:00+19ююз511830 0.0 1016331
05:00+19ююз511873 0.0 1016332
08:00+23ююз48725 0.0 1018494
11:00+28ю56557 0.0 10171555
14:00+28ююв56562 0.0 10151242
17:00+25ю48695 0.0 1016511
20:00+22ююз49800 0.0 1018317
20 мая, чт
чт2023:00+21ююз49910 0.0 1017244
02:00+20юз410934 0.1 1016268
05:00+20ююз510920 0.0 1017285
08:00+24ююз58750 0.0 1019488
11:00+28ю56599 0.2 10171406
14:00+28ююв555942 0.6 10151007
17:00+24ю47750 0.1 1017338
20:00+22ю37840 0.1 1018215